Tracking 25198 objects as of 16-Jan-2022
HD Live streaming from Space Station
objects crossing your sky now

THOR ABLESTAR DEB *

Track THOR ABLESTAR DEB * now!
10-day predictions


NORAD ID: 21970
Int'l Code: 1961-015ML
Perigee: 403.6 km
Apogee: 735.2 km
Inclination: 66.0 °
Period: 95.9 minutes
Semi major axis: 6940 km
RCS: 0.0158 m2 (small)
Launch date: June 29, 1961
Source: United States (US)
Launch site: AIR FORCE EASTERN TEST RANGE (AFETR)

Note: This is SATELLITE DEBRIS
aabbcc
Your satellite tracking list
Your tracking list is empty




NASA's NSSDC Master Catalog

Two Line Element Set (TLE):
1 21970U 61015ML  22015.24316119  .00013098  00000-0  54937-3 0  9991
2 21970  65.9852 318.3915 0238887   3.0207 357.2295 15.01498247601937
Source of the keplerian elements: AFSPC